Location: Eindhoven
(51.4416°N, 5.4697°E)
Time: 01:17:28
(UTC+01:00)

Tiros 1 - Pass Details

Date: 25 November 2019
Orbit: 630 x 664 km, 48.4° (Epoch: 06 December)

Event Time Altitude Azimuth Distance (km) Brightness Sun altitude
Rises 17:11:18 0° 277° (W) 2,920 11.6 -5.3°
Reaches altitude 10° 17:13:44 10° 270° (W) 2,012 10.9 -5.7°
Maximum altitude 17:17:59 38° 203° (SSW) 976 8.6 -6.3°
Drops below altitude 10° 17:22:16 10° 135° (SE) 2,016 9.5 -6.9°
Sets 17:24:43 0° 128° (SE) 2,927 10.2 -7.2°
